SAS987 EKCH-RKSI

Flight info

Callsign SAS987
Flight time N/A
Altitude 35000
Route KEMAX N851 NEXIL DCT VIBAR DCT DIGOX DCT PEPIG DCT ADOPO DCT KOKAT/K0876F350 N746 ARGIP T821 NAREK B946 LAGNI G719 TARSA R809 PTG G490 OMITA A920 KTN A91 AGINO A810 TELOK A345 MANLI/K0870S1065 A345 GOLOT/K0889F350 A575 YOMJU L683 JONJU DCT SASRI/N0482F350
Aircraft A333/H-SDE3GHIJ2J3J5M1RVWXY/LB2D1

Departure

Time N/A
Airport Copenhagen Kastrup Airport (EKCH)

Arrival

Time 2026-05-07 18:47
Airport Incheon International Airport (RKSI)
Time Latitude Longitude Altitude Speed Heading
2026-05-07 16:53 37.32505 126.45592 6295 ft 294 kts 156°
2026-05-07 16:53 37.30634 126.46727 5726 ft 301 kts 155°
2026-05-07 16:53 37.28756 126.47868 5372 ft 299 kts 155°
2026-05-07 16:54 37.26888 126.49002 4970 ft 298 kts 155°
2026-05-07 16:54 37.25029 126.50131 4606 ft 296 kts 154°
2026-05-07 16:54 37.23200 126.51240 4418 ft 287 kts 154°
2026-05-07 16:54 37.21497 126.52459 4267 ft 277 kts 140°
2026-05-07 16:55 37.20342 126.54294 4120 ft 263 kts 109°
2026-05-07 16:55 37.20047 126.56450 3998 ft 242 kts 79°
2026-05-07 16:55 37.20474 126.58287 3972 ft 219 kts 55°
2026-05-07 16:56 37.21208 126.59633 3972 ft 200 kts 40°
2026-05-07 16:56 37.22250 126.60657 3864 ft 183 kts 21°
2026-05-07 16:56 37.24591 126.61135 3369 ft 164 kts 346°
2026-05-07 16:57 37.25639 126.60642 3143 ft 159 kts 334°
2026-05-07 16:57 37.26592 126.59935 2988 ft 160 kts 328°
2026-05-07 16:57 37.27510 126.59141 2984 ft 160 kts 327°
2026-05-07 16:57 37.28418 126.58331 2987 ft 161 kts 326°
2026-05-07 16:58 37.29330 126.57518 2989 ft 161 kts 326°
2026-05-07 16:58 37.30244 126.56705 2989 ft 160 kts 327°
2026-05-07 16:58 37.31153 126.55898 2996 ft 159 kts 327°
2026-05-07 16:58 37.32039 126.55111 2985 ft 149 kts 327°
2026-05-07 16:59 37.32862 126.54380 2839 ft 141 kts 327°
2026-05-07 16:59 37.33647 126.53684 2650 ft 138 kts 327°
2026-05-07 16:59 37.34434 126.52985 2459 ft 139 kts 327°
2026-05-07 16:59 37.35217 126.52289 2254 ft 134 kts 326°
2026-05-07 17:00 37.35938 126.51646 2096 ft 122 kts 326°
2026-05-07 17:00 37.36636 126.51027 1923 ft 125 kts 326°
2026-05-07 17:00 37.37363 126.50382 1758 ft 130 kts 326°
2026-05-07 17:00 37.37961 126.49850 1605 ft 132 kts 326°
2026-05-07 18:45 37.38506 126.49366 1459 ft 133 kts 326°
2026-05-07 18:45 37.39254 126.48699 1292 ft 131 kts 325°
2026-05-07 18:45 37.39998 126.48037 1106 ft 130 kts 325°
2026-05-07 18:45 37.40739 126.47381 918 ft 131 kts 323°
2026-05-07 18:46 37.41482 126.46710 727 ft 132 kts 324°
2026-05-07 18:46 37.42227 126.46055 573 ft 130 kts 323°
2026-05-07 18:46 37.42963 126.45399 371 ft 128 kts 323°
2026-05-07 18:46 37.43685 126.44753 220 ft 127 kts 323°
2026-05-07 18:47 37.44413 126.44102 57 ft 128 kts 323°
2026-05-07 18:47 37.45094 126.43498 34 ft 101 kts 324°
2026-05-07 18:47 37.45533 126.43109 39 ft 61 kts 325°
2026-05-07 18:47 37.45732 126.42996 38 ft 15 kts 25°
2026-05-07 18:48 37.45800 126.43081 37 ft 14 kts 33°
2026-05-07 18:48 37.45889 126.43140 36 ft 15 kts 43°
2026-05-07 18:48 37.45955 126.43252 36 ft 17 kts 54°
2026-05-07 18:48 37.46003 126.43334 36 ft 18 kts 53°
2026-05-07 18:49 37.46077 126.43467 36 ft 19 kts 55°
2026-05-07 18:49 37.46185 126.43656 36 ft 21 kts 54°
2026-05-07 18:49 37.46243 126.43757 36 ft 22 kts 54°
2026-05-07 18:49 37.46332 126.43915 36 ft 21 kts 54°
2026-05-07 18:50 37.46405 126.44042 36 ft 14 kts 54°
2026-05-07 18:50 37.46484 126.44106 36 ft 14 kts
2026-05-07 18:50 37.46538 126.44108 36 ft 0 kts
2026-05-07 18:50 37.46552 126.44108 36 ft 0 kts